Weather History for Pope Field Airport, NC

Change the Weather History Date:

Saturday, March 30, 2013

  Actual Average Record
Temperature  
Mean Temperature 54 °F -  
Max Temperature 66 °F 71 °F 90 °F (1985)
Min Temperature 43 °F 50 °F 34 °F (1982)
Degree Days  
Heating Degree Days 10    
Growing Degree Days 4 (Base 50)    
Moisture  
Dew Point 41 °F    
Average Humidity 62    
Maximum Humidity 87    
Minimum Humidity 37    
Precipitation  
Precipitation 0.00 in - - ()
Sea Level Pressure  
Sea Level Pressure 30.17 in    
Wind  
Wind Speed 3 mph (SW)    
Max Wind Speed 9 mph    
Max Gust Speed -    
Visibility 10 miles    
Events Rain    
Averages and records for this station are not official NWS values.
T = Trace of Precipitation, MM = Missing Value Source: NWS Daily Summary

Daily Weather History Graph

Daily Weather History Graph

Search for Another Location

Airport:

Trip Planner

Search our weather history database for the weather conditions in past years. The results will help you decide how hot, cold, wet, or windy it might be!

Date:

Astronomy

Mar. 30, 2013 Rise Set
Actual Time 7:05 AM EDT 7:36 PM EDT
Civil Twilight 6:39 AM EDT 8:01 PM EDT
Nautical Twilight 6:09 AM EDT 8:31 PM EDT
Astronomical Twilight 5:39 AM EDT 9:02 PM EDT
Moon 11:31 PM EDT (3/30) 9:07 AM EDT (3/30)
Length of Visible Light 13h 21m
Length of Day
12h 30m
Waning Gibbous, 86% of the Moon is Illuminated
Mar 30
Waning Gibbous
Apr 3
Last Quarter
Apr 10
New
Apr 18
First Quarter
Apr 25
Full

Hourly Weather History & Observations

Time (EDT) Temp. Windchill Dew Point Humidity Pressure Visibility Wind Dir Wind Speed Gust Speed Precip Events Conditions
12:58 AM 45.5 °F - 34.2 °F 65% 30.21 in 10.0 mi Calm Calm - N/A   Mostly Cloudy
1:58 AM 45.7 °F 44.4 °F 34.3 °F 65% 30.21 in 10.0 mi WSW 3.5 mph - N/A   Scattered Clouds
2:58 AM 43.5 °F - 34.2 °F 70% 30.21 in 10.0 mi Variable 1.2 mph - N/A   Overcast
3:58 AM 45.1 °F - 34.5 °F 66% 30.20 in 10.0 mi West 2.3 mph - N/A   Overcast
4:58 AM 46.9 °F - 34.0 °F 61% 30.20 in 10.0 mi West 2.3 mph - N/A   Overcast
5:58 AM 46.8 °F - 35.1 °F 64% 30.21 in 10.0 mi WNW 2.3 mph - N/A   Overcast
6:58 AM 46.4 °F 44.3 °F 36.3 °F 68% 30.24 in 10.0 mi West 4.6 mph - N/A   Overcast
7:58 AM 48.2 °F - 40.6 °F 75% 30.25 in 10.0 mi West 4.6 mph - N/A   Overcast
8:18 AM 48.2 °F - 42.8 °F 82% 30.25 in 10.0 mi WSW 5.8 mph - N/A   Light Drizzle
8:47 AM 48.2 °F - 44.6 °F 87% 30.24 in 10.0 mi WSW 2.3 mph - N/A   Overcast
8:58 AM 48.6 °F - 44.1 °F 84% 30.25 in 10.0 mi Calm Calm - 0.00 in   Overcast
9:58 AM 50.7 °F - 44.6 °F 80% 30.25 in 10.0 mi West 2.3 mph - N/A   Mostly Cloudy
10:58 AM 54.0 °F - 44.4 °F 70% 30.24 in 10.0 mi Variable 2.3 mph - N/A   Mostly Cloudy
11:58 AM 60.1 °F - 42.6 °F 53% 30.21 in 10.0 mi Calm Calm - N/A   Partly Cloudy
12:58 PM 63.3 °F - 40.6 °F 43% 30.19 in 10.0 mi SW 4.6 mph - N/A   Mostly Cloudy
1:58 PM 64.2 °F - 40.6 °F 42% 30.16 in 10.0 mi Variable 1.2 mph - N/A   Partly Cloudy
2:58 PM 64.6 °F - 39.6 °F 40% 30.13 in 10.0 mi Variable 4.6 mph - N/A   Mostly Cloudy
3:58 PM 66.6 °F - 39.2 °F 37% 30.11 in 10.0 mi WSW 4.6 mph - N/A   Mostly Cloudy
4:58 PM 64.9 °F - 41.4 °F 42% 30.11 in 10.0 mi South 8.1 mph - N/A   Mostly Cloudy
5:58 PM 64.4 °F - 43.5 °F 47% 30.10 in 10.0 mi SSW 8.1 mph - N/A   Scattered Clouds
6:59 PM 63.0 °F - 44.1 °F 50% 30.11 in 10.0 mi SW 9.2 mph - N/A   Clear
7:59 PM 60.1 °F - 44.6 °F 57% 30.11 in 10.0 mi South 3.5 mph - N/A   Clear
8:00 PM 59.0 °F - 44.6 °F 59% 30.10 in 10.0 mi South 2.3 mph - N/A   Light Drizzle
8:01 PM 59.0 °F - 44.6 °F 59% 30.10 in 10.0 mi South 2.3 mph - N/A   Clear
8:05 PM 59.0 °F - 44.6 °F 59% 30.11 in 10.0 mi South 2.3 mph - N/A Rain Light Rain
8:07 PM 59.0 °F - 44.6 °F 59% 30.11 in 10.0 mi South 2.3 mph - N/A   Clear
8:58 PM 58.8 °F - 44.8 °F 60% 30.13 in 10.0 mi South 2.3 mph - 0.00 in   Mostly Cloudy
9:58 PM 58.1 °F - 45.3 °F 62% 30.13 in 10.0 mi South 4.6 mph - N/A   Scattered Clouds
10:58 PM 56.1 °F - 45.5 °F 68% 30.13 in 10.0 mi Variable 3.5 mph - N/A   Clear
11:58 PM 54.7 °F - 46.0 °F 73% 30.12 in 10.0 mi Variable 5.8 mph - N/A   Clear